カタログに戻る

STARLINK-30949

運用中通信VLEO
NORAD 58415·PAYLOAD·🇺🇸 United States

打ち上げ Nov 22, 2023 から Cape Canaveral Space Force Station

Loading…

次のパス (今後24時間)

TLE

最新Source: CelesTrak SupGP

元期: Sep 15, 2026, 03:09 UTC

1 58415C 23180P   26258.13173611 -.00027344  00000+0 -99029-3 0  2584
2 58415  43.0031  62.7132 0001386 266.6008 250.4806 15.27595642    15

AllMySatでSTARLINK-30949をリアルタイム追跡

Download on the App Store